Location: Copeville
(33.0796°N, 96.4155°W)
Time: 09:33:43
(UTC+00:00)

SPROUT - Visible Passes

Search period start: 23 April 2024 00:00
Search period end: 03 May 2024 00:00
Orbit: 466 x 473 km, 98.0° (Epoch: 22 April)

Date Brightness Start Highest point End Pass type
(mag) Time Alt. Az. Time Alt. Az. Time Alt. Az.
23 Apr ? 08:36:26 10° NNE 08:36:26 10° NNE 08:36:33 10° NNE visible
24 Apr ? 09:40:49 14° NNW 09:40:49 14° NNW 09:41:20 10° NNW visible
25 Apr ? 09:10:54 17° N 09:10:54 17° N 09:11:51 10° N visible
26 Apr ? 08:40:43 13° NE 08:40:43 13° NE 08:41:23 10° NNE visible
27 Apr ? 09:44:13 17° NNW 09:44:13 17° NNW 09:45:06 10° NNW visible
28 Apr ? 09:13:30 22° N 09:13:30 22° N 09:14:52 10° N visible
29 Apr ? 08:42:30 15° NE 08:42:30 15° NE 08:43:37 10° NNE visible
30 Apr ? 09:45:09 21° NNW 09:45:09 21° NNW 09:46:27 10° NNW visible
01 May ? 09:13:37 27° NNE 09:13:37 27° NNE 09:15:24 10° N visible
02 May ? 08:41:50 16° NE 08:41:50 16° NE 08:43:16 10° NNE visible
02 May ? 10:15:41 12° WNW 10:15:41 12° WNW 10:16:05 10° NW visible
